When you browse on this site, cookies collect data to enhance your experience and personalize the content and advertising you see.
Visit our Privacy Policy to learn more. By continuing to use the site, you agree to this use of cookies and data.
EN

Hourly Weather Saharovka

Today, 9 July, Thursday

Time Temperature Precipitation Wind Pressure Humidity
00:00 +23°C° 0 mm 4 mps 755 mmHg 90%
01:00 +23°C° 0 mm 4 mps 755 mmHg 88%
02:00 +23°C° 0 mm 4 mps 755 mmHg 87%
03:00 +22°C° 0 mm 3 mps 755 mmHg 84%
04:00 +24°C° 0 mm 3 mps 755 mmHg 83%
05:00 +25°C° 0 mm 4 mps 755 mmHg 81%
06:00 +25°C° 0 mm 4 mps 755 mmHg 80%
07:00 +27°C° 0 mm 4 mps 755 mmHg 77%
08:00 +28°C° 0 mm 5 mps 755 mmHg 73%
09:00 +29°C° 0 mm 5 mps 755 mmHg 71%
10:00 +30°C° 0 mm 5 mps 755 mmHg 67%
11:00 +32°C° 0 mm 5 mps 755 mmHg 64%
12:00 +32°C° 0 mm 5 mps 755 mmHg 61%
13:00 +32°C° 0 mm 5 mps 755 mmHg 61%
14:00 +33°C° 0 mm 5 mps 755 mmHg 61%
15:00 +33°C° 0 mm 4 mps 755 mmHg 61%
16:00 +32°C° 0 mm 4 mps 754 mmHg 65%
17:00 +30°C° 0 mm 4 mps 754 mmHg 69%
18:00 +30°C° 0 mm 3 mps 754 mmHg 73%
19:00 +28°C° 0 mm 3 mps 754 mmHg 74%
20:00 +27°C° 0 mm 3 mps 754 mmHg 76%
21:00 +26°C° 0 mm 3 mps 754 mmHg 77%
22:00 +25°C° 0 mm 4 mps 754 mmHg 77%
23:00 +25°C° 0 mm 4 mps 754 mmHg 78%

Tomorrow, 10 July, Friday

Time Temperature Precipitation Wind Pressure Humidity
00:00 +23°C° 0 mm 4 mps 754 mmHg 78%
01:00 +23°C° 0 mm 4 mps 754 mmHg 77%
02:00 +23°C° 0 mm 4 mps 754 mmHg 77%
03:00 +23°C° 0 mm 4 mps 754 mmHg 76%
04:00 +24°C° 0 mm 3 mps 754 mmHg 77%
05:00 +24°C° 0 mm 3 mps 754 mmHg 77%
06:00 +24°C° 0 mm 3 mps 754 mmHg 78%
07:00 +25°C° 0 mm 3 mps 755 mmHg 77%
08:00 +26°C° 0 mm 3 mps 755 mmHg 75%
09:00 +27°C° 0 mm 3 mps 755 mmHg 74%
10:00 +28°C° 0 mm 3 mps 755 mmHg 71%
11:00 +28°C° 0 mm 3 mps 755 mmHg 68%
12:00 +29°C° 0 mm 3 mps 755 mmHg 66%
13:00 +28°C° 0.5 mm 4 mps 755 mmHg 71%
14:00 +27°C° 0.5 mm 5 mps 756 mmHg 76%
15:00 +26°C° 0.5 mm 6 mps 756 mmHg 81%
16:00 +25°C° 0.5 mm 5 mps 756 mmHg 84%
17:00 +22°C° 0.5 mm 4 mps 756 mmHg 87%
18:00 +21°C° 0.5 mm 3 mps 757 mmHg 90%
19:00 +20°C° 0 mm 3 mps 757 mmHg 91%
20:00 +20°C° 0 mm 2 mps 757 mmHg 92%
21:00 +19°C° 0 mm 2 mps 757 mmHg 93%
22:00 +19°C° 0 mm 2 mps 758 mmHg 94%
23:00 +18°C° 0 mm 2 mps 758 mmHg 95%

Day after tomorrow, 11 July, Saturday

Time Temperature Precipitation Wind Pressure Humidity
00:00 +18°C° 0 mm 2 mps 758 mmHg 96%
01:00 +18°C° 0 mm 3 mps 758 mmHg 95%
02:00 +17°C° 0 mm 3 mps 759 mmHg 95%
03:00 +17°C° 0 mm 3 mps 759 mmHg 94%
04:00 +17°C° 0 mm 3 mps 759 mmHg 91%
05:00 +18°C° 0 mm 4 mps 759 mmHg 89%
06:00 +18°C° 0 mm 4 mps 760 mmHg 86%
07:00 +20°C° 0 mm 3 mps 760 mmHg 81%
08:00 +21°C° 0 mm 3 mps 760 mmHg 76%
09:00 +22°C° 0 mm 3 mps 760 mmHg 71%
10:00 +24°C° 0 mm 3 mps 760 mmHg 67%
11:00 +25°C° 0 mm 3 mps 760 mmHg 63%
12:00 +26°C° 0 mm 3 mps 760 mmHg 59%
13:00 +26°C° 0 mm 3 mps 760 mmHg 59%
14:00 +26°C° 0 mm 2 mps 760 mmHg 58%
15:00 +26°C° 0 mm 2 mps 760 mmHg 57%
16:00 +26°C° 0 mm 2 mps 760 mmHg 61%
17:00 +26°C° 0 mm 1 mps 760 mmHg 65%
18:00 +25°C° 0 mm 1 mps 759 mmHg 68%
19:00 +24°C° 0 mm 1 mps 760 mmHg 71%
20:00 +22°C° 0 mm 1 mps 760 mmHg 73%
21:00 +20°C° 0 mm 1 mps 760 mmHg 75%
22:00 +20°C° 0 mm 1 mps 760 mmHg 76%
23:00 +19°C° 0 mm 1 mps 760 mmHg 77%

12 July, Sunday

Time Temperature Precipitation Wind Pressure Humidity
00:00 +19°C° 0 mm 1 mps 760 mmHg 79%
01:00 +18°C° 0 mm 1 mps 760 mmHg 80%
02:00 +16°C° 0 mm 0 mps 760 mmHg 80%
03:00 +16°C° 0 mm 0 mps 760 mmHg 81%
04:00 +17°C° 0 mm 0 mps 760 mmHg 79%
05:00 +18°C° 0 mm 0 mps 760 mmHg 77%
06:00 +19°C° 0 mm 0 mps 760 mmHg 75%
07:00 +22°C° 0 mm 1 mps 760 mmHg 71%
08:00 +23°C° 0 mm 1 mps 760 mmHg 68%
09:00 +24°C° 0 mm 1 mps 760 mmHg 64%
10:00 +25°C° 0 mm 1 mps 760 mmHg 62%
11:00 +26°C° 0 mm 1 mps 760 mmHg 59%
12:00 +26°C° 0 mm 1 mps 759 mmHg 57%
13:00 +27°C° 0 mm 1 mps 759 mmHg 57%
14:00 +27°C° 0 mm 1 mps 759 mmHg 57%
15:00 +27°C° 0 mm 1 mps 759 mmHg 56%
16:00 +27°C° 0 mm 1 mps 759 mmHg 61%
17:00 +26°C° 0 mm 1 mps 758 mmHg 67%
18:00 +25°C° 0 mm 1 mps 758 mmHg 72%
19:00 +24°C° 0 mm 1 mps 758 mmHg 73%
20:00 +23°C° 0 mm 1 mps 758 mmHg 74%
21:00 +21°C° 0 mm 1 mps 758 mmHg 75%
22:00 +21°C° 0 mm 1 mps 758 mmHg 77%
23:00 +21°C° 0 mm 1 mps 758 mmHg 79%

13 July, Monday

Time Temperature Precipitation Wind Pressure Humidity
00:00 +20°C° 0 mm 1 mps 758 mmHg 81%
01:00 +20°C° 0 mm 1 mps 758 mmHg 82%
02:00 +20°C° 0 mm 1 mps 757 mmHg 84%
03:00 +19°C° 0 mm 1 mps 757 mmHg 85%
04:00 +20°C° 0 mm 1 mps 757 mmHg 83%
05:00 +21°C° 0 mm 1 mps 757 mmHg 81%
06:00 +22°C° 0 mm 1 mps 757 mmHg 79%
07:00 +23°C° 0 mm 1 mps 757 mmHg 76%
08:00 +24°C° 0 mm 1 mps 757 mmHg 72%
09:00 +26°C° 0 mm 1 mps 757 mmHg 68%
10:00 +26°C° 0 mm 1 mps 757 mmHg 65%
11:00 +27°C° 0 mm 1 mps 756 mmHg 63%
12:00 +28°C° 0 mm 1 mps 756 mmHg 60%
13:00 +28°C° 0 mm 1 mps 756 mmHg 59%
14:00 +28°C° 0 mm 1 mps 756 mmHg 58%
15:00 +26°C° 0 mm 0 mps 756 mmHg 57%
16:00 +28°C° 0 mm 1 mps 756 mmHg 61%
17:00 +28°C° 0 mm 1 mps 755 mmHg 65%
18:00 +27°C° 0 mm 1 mps 755 mmHg 69%
19:00 +26°C° 0 mm 1 mps 755 mmHg 72%
20:00 +24°C° 0 mm 2 mps 755 mmHg 75%
21:00 +23°C° 0 mm 2 mps 755 mmHg 78%
22:00 +23°C° 0 mm 2 mps 755 mmHg 79%
23:00 +21°C° 0 mm 2 mps 755 mmHg 79%

14 July, Tuesday

Time Temperature Precipitation Wind Pressure Humidity
00:00 +21°C° 0 mm 2 mps 755 mmHg 80%
01:00 +21°C° 0 mm 2 mps 755 mmHg 81%
02:00 +20°C° 0 mm 2 mps 755 mmHg 82%
03:00 +20°C° 0 mm 2 mps 755 mmHg 83%
04:00 +20°C° 0 mm 2 mps 755 mmHg 83%
05:00 +21°C° 0 mm 2 mps 755 mmHg 83%
06:00 +21°C° 0 mm 2 mps 755 mmHg 83%
07:00 +22°C° 0 mm 3 mps 755 mmHg 81%
08:00 +25°C° 0 mm 3 mps 755 mmHg 78%
09:00 +26°C° 0 mm 3 mps 755 mmHg 76%
10:00 +26°C° 0 mm 3 mps 755 mmHg 76%
11:00 +27°C° 0 mm 3 mps 754 mmHg 75%
12:00 +27°C° 0 mm 2 mps 754 mmHg 75%
13:00 +27°C° 0 mm 4 mps 754 mmHg 74%
14:00 +27°C° 0 mm 5 mps 753 mmHg 73%
15:00 +27°C° 0 mm 7 mps 753 mmHg 72%
16:00 +27°C° 0 mm 6 mps 753 mmHg 74%
17:00 +27°C° 0 mm 6 mps 752 mmHg 75%
18:00 +27°C° 0 mm 5 mps 752 mmHg 77%
19:00 +26°C° 0.4 mm 5 mps 752 mmHg 80%
20:00 +26°C° 0.4 mm 5 mps 752 mmHg 83%
21:00 +25°C° 0.4 mm 5 mps 751 mmHg 86%
22:00 +24°C° 0.1 mm 6 mps 751 mmHg 83%
23:00 +23°C° 0.1 mm 6 mps 751 mmHg 80%
Show more